Weather History for Bradshaw AFB, HI

Change the Weather History Date:

Sunday, October 6, 2013

  Actual Average Record
Temperature  
Mean Temperature 58 °F -  
Max Temperature 69 °F 69 °F 77 °F (2010)
Min Temperature 46 °F 49 °F 42 °F (1998)
Degree Days  
Heating Degree Days 8    
Growing Degree Days 8 (Base 50)    
Moisture  
Dew Point 48 °F    
Average Humidity 72    
Maximum Humidity 94    
Minimum Humidity 43    
Precipitation  
Precipitation 0.00 in - - ()
Sea Level Pressure  
Sea Level Pressure 30.30 in    
Wind  
Wind Speed 7 mph (SSE)    
Max Wind Speed 15 mph    
Max Gust Speed 24 mph    
Visibility 12 miles    
Events      
Averages and records for this station are not official NWS values.
T = Trace of Precipitation, MM = Missing Value Source: NWS Daily Summary

Daily Weather History Graph

Daily Weather History Graph

Search for Another Location

Airport:

Trip Planner

Search our weather history database for the weather conditions in past years. The results will help you decide how hot, cold, wet, or windy it might be!

Date:

Astronomy

Oct. 06, 2013 Rise Set
Actual Time 6:14 AM HST 6:05 PM HST
Civil Twilight 5:52 AM HST 6:27 PM HST
Nautical Twilight 5:26 AM HST 6:53 PM HST
Astronomical Twilight 5:01 AM HST 7:18 PM HST
Moon 7:52 AM HST (10/6) 7:34 PM HST (10/6)
Length of Visible Light 12h 35m
Length of Day
11h 51m
Waxing Crescent, 4% of the Moon is Illuminated
Oct 6
Waxing Crescent
Oct 11
First Quarter
Oct 18
Full
Oct 26
Last Quarter
Nov 3
New

Hourly Weather History & Observations

Time (HST) Temp. Dew Point Humidity Pressure Visibility Wind Dir Wind Speed Gust Speed Precip Events Conditions
12:01 AM 55.4 °F 51.8 °F 88% 30.32 in 12.0 mi SE 3.5 mph - N/A   Overcast
12:06 AM 55.4 °F 51.8 °F 88% 30.32 in 12.0 mi ESE 3.5 mph - N/A   Overcast
12:26 AM 55.4 °F 51.8 °F 88% 30.32 in 12.0 mi SE 3.5 mph - N/A   Mostly Cloudy
12:31 AM 53.6 °F 51.8 °F 94% 30.32 in 12.0 mi SE 2.3 mph - N/A   Scattered Clouds
12:56 AM 51.6 °F 45.7 °F 80% 30.31 in 12.0 mi ESE 3.5 mph - N/A   Clear
1:56 AM 49.6 °F 44.4 °F 82% 30.28 in 12.0 mi ESE 4.6 mph - N/A   Clear
2:56 AM 48.0 °F 42.1 °F 80% 30.28 in 12.0 mi ESE 3.5 mph - N/A   Clear
3:56 AM 48.7 °F 42.3 °F 78% 30.27 in 12.0 mi ESE 4.6 mph - N/A   Clear
4:56 AM 46.8 °F 41.7 °F 83% 30.28 in 12.0 mi SE 5.8 mph - N/A   Clear
5:56 AM 48.9 °F 41.2 °F 75% 30.29 in 12.0 mi ESE 4.6 mph - N/A   Partly Cloudy
6:56 AM 52.2 °F 46.2 °F 80% 30.30 in 5.0 mi ESE 5.8 mph - N/A   Clear
7:56 AM 57.0 °F 50.9 °F 80% 30.32 in 12.0 mi SE 10.4 mph 18.4 mph N/A   Partly Cloudy
8:56 AM 60.4 °F 50.0 °F 68% 30.33 in 12.0 mi SE 8.1 mph - N/A   Clear
9:56 AM 64.2 °F 48.9 °F 58% 30.33 in 12.0 mi South 10.4 mph 17.3 mph N/A   Clear
10:11 AM 66.2 °F 48.2 °F 52% 30.33 in 12.0 mi SSE 12.7 mph 17.3 mph N/A   Partly Cloudy
10:56 AM 64.9 °F 50.5 °F 60% 30.32 in 12.0 mi South 12.7 mph 19.6 mph N/A   Clear
11:47 AM 68.0 °F 48.2 °F 49% 30.30 in 12.0 mi SE 15.0 mph 23.0 mph N/A   Clear
11:56 AM 69.3 °F 46.0 °F 43% 30.30 in 12.0 mi SSE 11.5 mph 20.7 mph N/A   Partly Cloudy
12:56 PM 69.3 °F 46.4 °F 44% 30.28 in 12.0 mi South 8.1 mph 17.3 mph N/A   Partly Cloudy
1:51 PM 64.4 °F 55.4 °F 73% 30.27 in 12.0 mi West 15.0 mph 18.4 mph N/A   Mostly Cloudy
1:56 PM 64.0 °F 56.1 °F 75% 30.27 in 12.0 mi West 12.7 mph - N/A   Mostly Cloudy
2:56 PM 63.3 °F 56.8 °F 79% 30.26 in 12.0 mi West 11.5 mph 17.3 mph N/A   Mostly Cloudy
3:31 PM 62.6 °F 53.6 °F 72% 30.26 in 12.0 mi SSW 8.1 mph 24.2 mph N/A   Mostly Cloudy
3:46 PM 62.6 °F 51.8 °F 68% 30.26 in 12.0 mi SE 10.4 mph - N/A   Mostly Cloudy
3:56 PM 62.1 °F 51.6 °F 69% 30.26 in 12.0 mi South 12.7 mph 16.1 mph N/A   Mostly Cloudy
4:56 PM 61.0 °F 49.8 °F 67% 30.27 in 12.0 mi South 10.4 mph - N/A   Partly Cloudy
5:21 PM 60.8 °F 50.0 °F 68% 30.28 in 12.0 mi SSE 9.2 mph 15.0 mph N/A   Mostly Cloudy
5:26 PM 60.8 °F 48.2 °F 63% 30.28 in 12.0 mi SE 8.1 mph 12.7 mph N/A   Mostly Cloudy
5:56 PM 59.2 °F 48.9 °F 69% 30.29 in 12.0 mi SSE 6.9 mph - N/A   Partly Cloudy
6:56 PM 54.5 °F 48.9 °F 81% 30.31 in 12.0 mi SE 8.1 mph - N/A   Partly Cloudy
7:56 PM 53.6 °F 47.5 °F 80% 30.32 in 12.0 mi SSE 6.9 mph 17.3 mph N/A   Partly Cloudy
8:56 PM 54.1 °F 37.6 °F 54% 30.33 in 12.0 mi ESE 8.1 mph - N/A   Clear
9:56 PM 51.8 °F 46.8 °F 83% 30.33 in 12.0 mi SE 10.4 mph - N/A   Partly Cloudy
10:56 PM 52.9 °F 46.0 °F 78% 30.33 in 12.0 mi ESE 8.1 mph 16.1 mph N/A   Clear
11:56 PM 54.0 °F 41.7 °F 63% 30.31 in 12.0 mi ESE 6.9 mph - N/A   Mostly Cloudy